Date String (YYYY-MM-DD hh:mm:ss) UTC,Instrument flags,absolute air pressure of the measurement (hPa),sample flow rate (lpm),inlet stack bypass flow (lpm),air temperature of the measurement (°C),ambient temperature measured by the external sensor (°C),aerosol sample conditioner tube jacket temperature (°C),OPC LED temperature (°C),internal box temperature (°C),relative humidity of the measurement (%),span deviation,mass concentration of particles derived from Lorenz-Mie calculation of OPC scattering (μg/m³),mass concentration of particles derived from Lorenz-Mie calculation of OPC scattering (μg/m³),mass concentration of particles derived from Lorenz-Mie calculation of OPC scattering (μg/m³)
DateTimeUTC,F1_M11,P_M11,Q1_M11,Q2_M11,T1_M11,T2_M11,T3_M11,T4_M11,T5_M11,U1_M11,ZSPAN_M11,X0_M11,X2_M11,X1_M11
2024-05-01 12:00:00,SystemResetWarning,0824.3,5.01,000.00,024.7,023.9,000.0,033.3,026.5,015.3,0000.0,0012.85,0004.21,0002.41
2024-05-01 12:01:00,SystemResetWarning,0824.3,5.00,000.00,024.7,023.9,000.0,033.3,026.6,015.2,0000.0,0014.23,0004.22,0002.43
2024-05-01 12:02:00,SystemResetWarning,0824.3,4.98,000.00,024.7,023.9,000.0,033.3,026.5,015.1,0000.0,0014.49,0004.28,0002.43
2024-05-01 12:03:00,SystemResetWarning,0824.2,5.01,000.00,024.7,023.9,000.0,033.3,026.5,015.1,0000.0,0014.48,0004.30,0002.44
2024-05-01 12:04:00,SystemResetWarning,0824.2,5.01,000.00,024.7,023.9,000.0,033.3,026.5,015.1,0000.0,0014.24,0004.32,0002.46
2024-05-01 12:05:00,SystemResetWarning,0824.1,5.00,000.00,024.6,023.8,000.0,033.3,026.5,015.2,0000.0,0014.93,0004.32,0002.45
2024-05-01 12:06:00,SystemResetWarning,0824.0,4.99,000.00,024.6,023.8,000.0,033.3,026.5,015.2,0000.0,0015.18,0004.25,0002.42
2024-05-01 12:07:00,SystemResetWarning,0824.1,5.01,000.00,024.6,023.8,000.0,033.2,026.5,015.2,0000.0,0015.19,0004.22,0002.40
2024-05-01 12:08:00,SystemResetWarning,0824.1,5.00,000.00,024.6,023.8,000.0,033.2,026.5,015.2,0000.0,0014.91,0004.18,0002.39
2024-05-01 12:09:00,SystemResetWarning,0824.1,5.00,000.00,024.6,023.8,000.0,033.2,026.5,015.1,0000.0,0014.50,0004.14,0002.40
2024-05-01 12:10:00,SystemResetWarning,0823.9,5.00,000.00,024.6,023.8,000.0,033.2,026.5,015.1,0000.0,0014.12,0004.09,0002.39
2024-05-01 12:11:00,SystemResetWarning,0824.0,4.99,000.00,024.6,023.8,000.0,033.2,026.4,015.1,0000.0,0013.78,0003.95,0002.36
2024-05-01 12:12:00,SystemResetWarning,0824.0,4.99,000.00,024.6,023.8,000.0,033.2,026.4,015.0,0000.0,0011.99,0003.86,0002.34
2024-05-01 12:13:00,SystemResetWarning,0824.0,4.99,000.00,024.6,023.8,000.0,033.2,026.4,015.0,0000.0,0010.87,0003.74,0002.32
2024-05-01 12:14:00,SystemResetWarning,0824.1,5.01,000.00,024.6,023.8,000.0,033.2,026.4,015.0,0000.0,0010.01,0003.67,0002.30
2024-05-01 12:15:00,SystemResetWarning,0824.2,5.00,000.00,024.6,023.8,000.0,033.2,026.4,014.7,0000.0,0010.15,0003.66,0002.29
2024-05-01 12:16:00,SystemResetWarning,0824.1,5.00,000.00,024.6,023.8,000.0,033.2,026.4,014.4,0000.0,0009.62,0003.64,0002.30
2024-05-01 12:17:00,SystemResetWarning,0824.1,5.00,000.00,024.5,023.8,000.0,033.2,026.4,014.3,0000.0,0009.05,0003.61,0002.31
2024-05-01 12:18:00,SystemResetWarning,0824.1,4.99,000.00,024.5,023.8,000.0,033.2,026.4,014.5,0000.0,0008.94,0003.57,0002.30
2024-05-01 12:19:00,SystemResetWarning,0824.1,4.99,000.00,024.5,023.8,000.0,033.1,026.4,014.5,0000.0,0008.76,0003.54,0002.30
2024-05-01 12:20:00,SystemResetWarning,0824.1,5.00,000.00,024.5,023.8,000.0,033.1,026.4,014.5,0000.0,0008.62,0003.53,0002.28
2024-05-01 12:21:00,SystemResetWarning,0824.1,5.00,000.00,024.5,023.8,000.0,033.1,026.3,014.5,0000.0,0009.26,0003.52,0002.27
2024-05-01 12:22:00,SystemResetWarning,0824.1,5.01,000.00,024.5,023.8,000.0,033.1,026.3,014.4,0000.0,0009.98,0003.49,0002.25
2024-05-01 12:23:00,SystemResetWarning,0824.1,5.00,000.00,024.5,023.8,000.0,033.1,026.4,014.3,0000.0,0009.99,0003.55,0002.24
2024-05-01 12:24:00,SystemResetWarning,0824.2,5.00,000.00,024.5,023.7,000.0,033.1,026.4,014.2,0000.0,0010.15,0003.57,0002.25
2024-05-01 12:25:00,SystemResetWarning,0824.2,5.00,000.00,024.5,023.7,000.0,033.1,026.3,014.2,0000.0,0010.32,0003.59,0002.24
2024-05-01 12:26:00,SystemResetWarning,0824.2,4.99,000.00,024.5,023.7,000.0,033.1,026.4,014.2,0000.0,0010.24,0003.57,0002.23
2024-05-01 12:27:00,SystemResetWarning,0824.2,5.00,000.00,024.5,023.7,000.0,033.1,026.3,014.7,0000.0,0009.95,0003.56,0002.22
2024-05-01 12:28:00,SystemResetWarning,0824.1,5.01,000.00,024.5,023.7,000.0,033.1,026.3,014.7,0000.0,0010.52,0003.60,0002.22
2024-05-01 12:29:00,SystemResetWarning,0824.1,5.01,000.00,024.5,023.7,000.0,033.1,026.3,014.8,0000.0,0010.97,0003.63,0002.23
2024-05-01 12:30:00,SystemResetWarning,0824.1,5.01,000.00,024.5,023.7,000.0,033.1,026.3,014.8,0000.0,0011.55,0003.65,0002.23
2024-05-01 12:31:00,SystemResetWarning,0824.1,5.01,000.00,024.5,023.7,000.0,033.1,026.3,014.7,0000.0,0011.87,0003.62,0002.24
2024-05-01 12:32:00,SystemResetWarning,0824.1,5.00,000.00,024.5,023.7,000.0,033.1,026.3,014.5,0000.0,0011.63,0003.62,0002.25
2024-05-01 12:33:00,SystemResetWarning,0824.2,4.98,000.00,024.5,023.7,000.0,033.1,026.3,014.3,0000.0,0010.79,0003.67,0002.28
2024-05-01 12:34:00,SystemResetWarning,0824.1,5.00,000.00,024.4,023.7,000.0,033.1,026.3,014.0,0000.0,0010.85,0003.65,0002.31
2024-05-01 12:35:00,SystemResetWarning,0824.1,5.01,000.00,024.4,023.7,000.0,033.0,026.3,013.8,0000.0,0011.18,0003.64,0002.30
2024-05-01 12:36:00,SystemResetWarning,0824.1,5.00,000.00,024.4,023.7,000.0,033.0,026.3,013.8,0000.0,0010.99,0003.63,0002.31
2024-05-01 12:37:00,SystemResetWarning,0824.1,4.99,000.00,024.4,023.7,000.0,033.0,026.3,013.7,0000.0,0010.81,0003.65,0002.31
2024-05-01 12:38:00,SystemResetWarning,0824.1,4.99,000.00,024.4,023.7,000.0,033.0,026.3,013.7,0000.0,0010.84,0003.65,0002.29
2024-05-01 12:39:00,SystemResetWarning,0824.1,5.01,000.00,024.4,023.7,000.0,033.0,026.3,013.7,0000.0,0010.46,0003.63,0002.27
2024-05-01 12:40:00,SystemResetWarning,0824.1,5.01,000.00,024.4,023.7,000.0,033.0,026.3,013.8,0000.0,0010.56,0003.62,0002.27
2024-05-01 12:41:00,SystemResetWarning,0824.1,5.01,000.00,024.4,023.7,000.0,033.0,026.3,013.8,0000.0,0009.97,0003.59,0002.25
2024-05-01 12:42:00,SystemResetWarning,0824.2,4.98,000.00,024.4,023.7,000.0,033.0,026.3,013.7,0000.0,0009.77,0003.61,0002.26
2024-05-01 12:43:00,SystemResetWarning,0824.1,5.00,000.00,024.4,023.7,000.0,033.0,026.3,013.8,0000.0,0009.51,0003.67,0002.26
2024-05-01 12:44:00,SystemResetWarning,0824.1,5.00,000.00,024.4,023.7,000.0,033.0,026.3,013.8,0000.0,0010.78,0003.66,0002.25
2024-05-01 12:45:00,SystemResetWarning,0824.2,5.00,000.00,024.4,023.7,000.0,033.0,026.3,013.8,0000.0,0010.95,0003.62,0002.23
2024-05-01 12:46:00,SystemResetWarning,0824.2,5.01,000.00,024.4,023.7,000.0,033.0,026.3,013.9,0000.0,0010.46,0003.57,0002.23
2024-05-01 12:47:00,SystemResetWarning,0824.2,5.01,000.00,024.4,023.7,000.0,033.0,026.3,013.7,0000.0,0010.51,0003.59,0002.23
2024-05-01 12:48:00,SystemResetWarning,0824.1,5.00,000.00,024.4,023.7,000.0,033.0,026.3,013.7,0000.0,0010.80,0003.58,0002.24
2024-05-01 12:49:00,SystemResetWarning,0824.2,4.99,000.00,024.4,023.7,000.0,033.0,026.3,013.7,0000.0,0011.33,0003.62,0002.27
2024-05-01 12:50:00,SystemResetWarning,0824.3,5.00,000.00,024.4,023.7,000.0,033.0,026.3,013.7,0000.0,0011.20,0003.63,0002.29
2024-05-01 12:51:00,SystemResetWarning,0824.3,5.01,000.00,024.4,023.7,000.0,033.0,026.3,013.7,0000.0,0011.06,0003.67,0002.30
2024-05-01 12:52:00,SystemResetWarning,0824.3,5.01,000.00,024.4,023.7,000.0,033.0,026.3,013.7,0000.0,0011.08,0003.69,0002.31
2024-05-01 12:53:00,SystemResetWarning,0824.3,4.99,000.00,024.4,023.7,000.0,032.9,026.3,013.7,0000.0,0010.96,0003.70,0002.30
2024-05-01 12:54:00,SystemResetWarning,0824.3,4.99,000.00,024.4,023.7,000.0,032.9,026.3,013.7,0000.0,0010.65,0003.64,0002.29
2024-05-01 12:55:00,SystemResetWarning,0824.3,4.99,000.00,024.4,023.7,000.0,032.9,026.3,013.8,0000.0,0009.26,0003.61,0002.29
2024-05-01 12:56:00,SystemResetWarning,0824.3,5.01,000.00,024.4,023.7,000.0,032.9,026.3,013.7,0000.0,0008.78,0003.59,0002.29
2024-05-01 12:57:00,SystemResetWarning,0824.3,5.01,000.00,024.4,023.7,000.0,032.9,026.3,013.7,0000.0,0008.83,0003.59,0002.28
2024-05-01 12:58:00,SystemResetWarning,0824.3,4.99,000.00,024.4,023.7,000.0,032.9,026.3,014.2,0000.0,0008.81,0003.57,0002.28
2024-05-01 12:59:00,SystemResetWarning,0824.3,5.00,000.00,024.4,023.7,000.0,032.9,026.3,014.8,0000.0,0008.32,0003.52,0002.27
